Lexington Weather

Lexington, Massachusetts, USA

56°F
10/22/2020 7:30pm 
  • Lexington Conditions: Mostly cloudy
  • Temperature: 55.8°F / 13.2°CColder 0.3°F than last hour.
  • Dew Point: 54.3°FDecreased 0.2°Fsince last hour.
  • Relative Humidity: 95%Increased 1.0% since last hour.
  • Wind: Wind from SSE SSE 1 mph, 10-min avg: 1 mph, gust: 4 mph
  • Barometer: 30.22 inRising 0.02  inHg/hr Rising Slowly
  • Visibility: 7 miles
  • Rain Today: 0.00 in
  •   

Regional Weather Roundup
for Boston / Norton, MA

        
000
ASUS41 KBOX 180804
RWRBOX

REGIONAL WEATHER ROUNDUP
NATIONAL WEATHER SERVICE BOSTON/NORTON MA
400 AM EDT SUN OCT 18 2020

NOTE:  "FAIR" INDICATES FEW OR NO CLOUDS BELOW 12,000 FEET WITH NO 
SIGNIFICANT WEATHER AND/OR OBSTRUCTIONS TO VISIBILITY.

MAZALL-180900-
EASTERN MASSACHUSETTS
  
CITY           SKY/WX    TMP DP  RH WIND       PRES   REMARKS
BOSTON         CLEAR     42  37  82 N3        30.49R                  
BEVERLY        CLEAR     35  32  88 CALM      30.48R                  
LAWRENCE       CLEAR     36  34  92 CALM      30.50R                  
BEDFORD        CLEAR     31  30  96 CALM      30.48R                  
BLUE HILL        N/A     49  28  44 S7        30.46R                  
NORWOOD        FOG       33  30  88 CALM      30.48S VSB 1/2          
MARSHFIELD     CLEAR     36  36 100 CALM      30.48R                  
PLYMOUTH       CLEAR     35  32  88 CALM      30.47S                  
TAUNTON        FOG       31  29  92 CALM      30.48R VSB 1/2          
NEW BEDFORD    CLEAR     32  31  96 CALM      30.47R                  
$$

MAZALL-180900-
CAPE COD AND THE ISLANDS
  
CITY           SKY/WX    TMP DP  RH WIND       PRES   REMARKS
FALMOUTH       CLEAR     32  32 100 CALM      30.47S                  
HYANNIS        CLEAR     34  32  92 CALM      30.46S                  
CHATHAM        CLEAR     39  36  89 N3        30.48S                  
PROVINCETOWN   CLEAR     31  29  92 CALM      30.49S                  
NANTUCKET      CLEAR    N/A N/A N/A NE7       30.47R                  
MARTHAS VNYRD  CLEAR     30  28  92 NW3       30.47R                  
$$
 
MAZALL-180900-
CENTRAL AND WESTERN MASSACHUSETTS
  
CITY           SKY/WX    TMP DP  RH WIND       PRES   REMARKS
WORCESTER      CLEAR     46  26  45 SW5       30.46R                  
FITCHBURG      CLEAR     32  30  92 NW5       30.48S WCI  27          
ORANGE         FOG       30  30 100 CALM      30.49R VSB 1/4          
SPRINGFIELD    CLEAR     29  28  97 CALM      30.47R                  
WESTFIELD      FOG       32  32 100 NW3       30.48S VSB 1            
NORTH ADAMS    CLEAR     32  30  92 CALM      30.47S                  
PITTSFIELD     CLEAR     31  29  92 CALM      30.44S                  
$$
 
RIZALL-180900-
RHODE ISLAND
  
CITY           SKY/WX    TMP DP  RH WIND       PRES   REMARKS
PROVIDENCE     CLEAR     37  35  92 W3        30.48S                  
NEWPORT        CLEAR     39  37  92 CALM      30.47R                  
BLOCK ISLAND   CLEAR     45  39  79 CALM      30.47R                  
SMITHFIELD     CLEAR     36  36 100 CALM        N/A                   
WESTERLY       CLEAR     35  32  88 N3        30.47S                  
$$
 
CTZALL-180900-
CONNECTICUT
  
CITY           SKY/WX    TMP DP  RH WIND       PRES   REMARKS
BRADLEY INTL   PTCLDY    32  29  88 CALM      30.48R                  
HARTFORD       CLEAR     36  33  89 CALM      30.48S                  
BRIDGEPORT     CLEAR     44  38  79 N3        30.46R                  
DANBURY        CLEAR     32  31  96 CALM      30.47S                  
GROTON         CLEAR     36  33  89 N6        30.47R WCI  31          
NEW HAVEN      CLEAR     40  35  83 CALM      30.46S                  
CHESTER        NOT AVBL                                               
MERIDEN        CLEAR     35  33  92 CALM      30.48R                  
WILLIMANTIC    MOCLDY    32  30  92 CALM      30.49R                  
OXFORD         CLEAR     36  35  96 E5        30.46R                  
$$

MEZ002-015-021-024-NHZ003-005-008-011-012-014-VTZ005-008-180900-
NORTHERN NEW ENGLAND
  
CITY           SKY/WX    TMP DP  RH WIND       PRES   REMARKS
PORTLAND ME    FLURRIES  31  31 100 CALM      30.49R                  
BANGOR ME      CLEAR     33  32  96 CALM      30.48R                  
CONCORD NH     FOG       29  28  96 CALM      30.49R VSB 1/4          
MANCHESTER NH  CLEAR     34  31  88 CALM      30.47R                  
NASHUA NH      CLEAR     30  30 100 NW5       30.49R WCI  25          
PORTSMOUTH NH  CLEAR     35  33  94 CALM      30.47R                  
JAFFREY NH     CLEAR     30  28  92 CALM      30.47S                  
KEENE NH       FOG       30  29  96 CALM      30.49S VSB 1/4          
BURLINGTON VT  CLEAR     37  32  82 E3        30.41R                  
MT. WASHINGTON PTCLDY    25  16  68 W25         N/A  WCI   9          
$$

NYZ052-076-180900-
EASTERN NEW YORK
  
CITY           SKY/WX    TMP DP  RH WIND       PRES   REMARKS
ALBANY         PTCLDY    35  32  88 CALM      30.46R                  
NEW YORK CITY  PTCLDY    50  39  66 CALM      30.44S                  
$$
 
ANZALL-180900-
MARINE OBSERVATIONS
  
STATION/POSITION TIME  TEMP    WIND        PRES    VSBY  WAVE
                       AIR SEA DIR/SP/G                  HT/PER
                 (UTC) (F)     (DEG/KT/KT) (MB)    (MI)  (FT/S)
BOSTON BUOY      0750   53 56  230/  4/  4 1031.3R         1/ 9
BUZZARDS BAY     0700           80/  8/  9 1032.4F
NANTUCKET SOUND  0750      61   50/  8/ 10   N/A           0
MASS BAY-STELLWA NOT AVBL
ISLE OF SHOALS   NOT AVBL
S OF BLOCK IS    0726      63                N/A           1/10
$$

......................KEY.........................
  SKY/WX - SKY CONDITION/PRESENT WEATHER
  TMP    - TEMPERATURE IN FAHRENHEIT
  DWPT   - DEWPOINT IN FAHRENHEIT
  RH     - RELATIVE HUMIDITY IN PERCENT
  WIND   - DIRECTION AND SPEED IN MPH
  PRES   - MEAN SEA LEVEL PRESSURE IN INCHES OF HG
  WCI    - WIND CHILL INDEX
  VSB    - VISIBILITY IN MILES
  HX     - HEAT INDEX
  TC     - TEMPERATURE IN CELSIUS
  VRB    - VARIABLE WIND DIRECTION
  N/A    - NOT AVAILABLE
  
      

Other recent Regional Weather Roundups

Thu Oct 22, 7:05pm

Thu Oct 22, 6:04pm

Thu Oct 22, 5:04pm

Thu Oct 22, 4:05pm

Thu Oct 22, 3:04pm

Thu Oct 22, 2:05pm

Thu Oct 22, 1:04pm

Thu Oct 22, 12:04pm

Thu Oct 22, 11:04am

Thu Oct 22, 10:05am

Thu Oct 22, 9:04am

Thu Oct 22, 8:05am

Thu Oct 22, 7:04am

Thu Oct 22, 6:04am

Thu Oct 22, 5:04am

Thu Oct 22, 4:04am

Thu Oct 22, 3:04am

Thu Oct 22, 2:04am

Thu Oct 22, 1:04am

Thu Oct 22, 12:04am

Wed Oct 21, 11:05pm

Wed Oct 21, 10:04pm

Wed Oct 21, 9:04pm

Wed Oct 21, 8:04pm

Wed Oct 21, 7:04pm

Wed Oct 21, 6:04pm

Wed Oct 21, 5:05pm

Wed Oct 21, 4:04pm

Wed Oct 21, 3:04pm

Wed Oct 21, 2:05pm

Wed Oct 21, 1:04pm

Wed Oct 21, 12:04pm

Wed Oct 21, 11:04am

Wed Oct 21, 10:04am

Wed Oct 21, 9:04am

Wed Oct 21, 8:04am

Wed Oct 21, 7:04am

Wed Oct 21, 6:04am

Wed Oct 21, 5:04am

Wed Oct 21, 4:04am

Wed Oct 21, 3:04am

Wed Oct 21, 2:04am

Wed Oct 21, 1:04am

Wed Oct 21, 12:04am

Tue Oct 20, 11:05pm

Tue Oct 20, 10:04pm

Tue Oct 20, 9:04pm

Tue Oct 20, 8:05pm

Tue Oct 20, 7:04pm

Tue Oct 20, 6:04pm

Tue Oct 20, 5:05pm

Tue Oct 20, 4:04pm

Tue Oct 20, 3:05pm

Tue Oct 20, 2:07pm

Tue Oct 20, 1:04pm

Tue Oct 20, 12:04pm

Tue Oct 20, 11:04am

Tue Oct 20, 10:05am

Tue Oct 20, 9:04am

Tue Oct 20, 8:04am

Tue Oct 20, 7:04am

Tue Oct 20, 6:04am

Tue Oct 20, 5:04am

Tue Oct 20, 4:04am

Tue Oct 20, 3:04am

Tue Oct 20, 2:04am

Tue Oct 20, 1:04am

Tue Oct 20, 12:04am

Mon Oct 19, 11:04pm

Mon Oct 19, 10:04pm

Mon Oct 19, 9:04pm

Mon Oct 19, 8:04pm

Mon Oct 19, 7:04pm

Mon Oct 19, 6:04pm

Mon Oct 19, 5:04pm

Mon Oct 19, 4:04pm

Mon Oct 19, 3:04pm

Mon Oct 19, 2:04pm

Mon Oct 19, 1:05pm

Mon Oct 19, 12:04pm

Mon Oct 19, 11:04am

Mon Oct 19, 10:04am

Mon Oct 19, 9:04am

Mon Oct 19, 8:04am

Mon Oct 19, 7:04am

Mon Oct 19, 6:04am

Mon Oct 19, 5:04am

Mon Oct 19, 4:04am

Mon Oct 19, 3:04am

Mon Oct 19, 2:04am

Mon Oct 19, 1:04am

Mon Oct 19, 12:05am

Sun Oct 18, 11:04pm

Sun Oct 18, 10:04pm

Sun Oct 18, 9:04pm

Sun Oct 18, 8:04pm

Sun Oct 18, 7:05pm

Sun Oct 18, 6:04pm

Sun Oct 18, 5:05pm

Sun Oct 18, 4:05pm

Sun Oct 18, 3:04pm

Sun Oct 18, 2:05pm

Sun Oct 18, 1:04pm

Sun Oct 18, 12:04pm

Sun Oct 18, 11:04am

Sun Oct 18, 10:04am

Sun Oct 18, 9:04am

Sun Oct 18, 8:04am

Sun Oct 18, 7:04am

Sun Oct 18, 6:04am

Sun Oct 18, 5:04am

Sun Oct 18, 3:04am

Sun Oct 18, 2:04am

Sun Oct 18, 1:04am

Sun Oct 18, 12:04am

Sat Oct 17, 11:05pm

Sat Oct 17, 10:04pm

Sat Oct 17, 9:04pm

Sat Oct 17, 8:04pm

Sat Oct 17, 7:04pm

Sat Oct 17, 6:04pm

Sat Oct 17, 5:05pm

Sat Oct 17, 4:04pm

Sat Oct 17, 3:04pm

Sat Oct 17, 2:05pm

Sat Oct 17, 1:05pm

Sat Oct 17, 12:04pm

Sat Oct 17, 11:05am

Sat Oct 17, 10:04am

Sat Oct 17, 9:04am

Sat Oct 17, 8:04am

Sat Oct 17, 7:04am

Sat Oct 17, 6:04am

Sat Oct 17, 5:04am

Sat Oct 17, 4:04am

Sat Oct 17, 3:04am

Sat Oct 17, 2:04am

Sat Oct 17, 1:05am

Sat Oct 17, 12:04am

Fri Oct 16, 11:05pm

Fri Oct 16, 10:04pm

Fri Oct 16, 9:05pm

Fri Oct 16, 8:04pm

Fri Oct 16, 7:05pm

Fri Oct 16, 6:04pm

Fri Oct 16, 5:04pm

Fri Oct 16, 4:05pm

Fri Oct 16, 3:04pm

Fri Oct 16, 2:04pm

Fri Oct 16, 1:04pm

Fri Oct 16, 12:04pm

Fri Oct 16, 11:05am

Fri Oct 16, 10:04am

Fri Oct 16, 9:04am

Fri Oct 16, 8:04am

Fri Oct 16, 7:04am

Fri Oct 16, 6:04am

Fri Oct 16, 5:04am

Fri Oct 16, 4:04am

Fri Oct 16, 3:04am

Fri Oct 16, 2:04am

Fri Oct 16, 1:04am

Fri Oct 16, 12:04am

Thu Oct 15, 11:04pm

Thu Oct 15, 10:04pm

Thu Oct 15, 9:05pm

Thu Oct 15, 8:04pm

Meta data:

ID: df3998d1-98c7-48f4-a95c-3bd03cd80521
Link: https://api.weather.gov/products/df3998d1-98c7-48f4-a95c-3bd03cd80521